New Ulm, MN

4:40 PM CDT on May 22, 2017 (GMT -0500)
New Ulm Municipal

Weather History for KULM - October, 2012

Change the Weather History Date:

Sunday, October 7, 2012

  Actual Average Record
Temperature  
Mean Temperature 39 °F -  
Max Temperature 57 °F 64 °F 87 °F (1980)
Min Temperature 21 °F 39 °F 20 °F (1974)
Degree Days  
Heating Degree Days 26    
Moisture  
Dew Point 16 °F    
Average Humidity 46    
Maximum Humidity 80    
Minimum Humidity 16    
Precipitation  
Precipitation 0.00 in - - ()
Sea Level Pressure  
Sea Level Pressure 30.03 in    
Wind  
Wind Speed 8 mph (SW)    
Max Wind Speed 20 mph    
Max Gust Speed 25 mph    
Visibility 10 miles    
Events      
Averages and records for this station are not official NWS values.
T = Trace of Precipitation, MM = Missing Value Source: NWS Daily Summary

Daily Weather History Graph

Daily Weather History Graph

Search for Another Location

Airport or City:

Trip Planner

Search our weather history database for the weather conditions in past years. The results will help you decide how hot, cold, wet, or windy it might be!

Date:

Astronomy

Oct. 07, 2012 Rise Set
Actual Time 7:23 AM CDT 6:46 PM CDT
Civil Twilight 6:54 AM CDT 7:15 PM CDT
Nautical Twilight 6:21 AM CDT 7:49 PM CDT
Astronomical Twilight 5:47 AM CDT 8:23 PM CDT
Moon 11:50 PM CDT (10/7) 2:10 PM CDT (10/7)
Length of Visible Light 12h 21m
Length of Day
11h 23m
Waning Gibbous, 56% of the Moon is Illuminated
Oct 7
Waning Gibbous
Oct 8
Last Quarter
Oct 15
New
Oct 21
First Quarter
Oct 29
Full

Hourly Weather History & Observations

Time (CDT) Temp. Windchill Dew Point Humidity Pressure Visibility Wind Dir Wind Speed Gust Speed Precip Events Conditions
12:12 AM 26.6 °F 21.2 °F 17.6 °F 69% 30.25 in 10.0 mi West 4.6 mph - N/A   Clear
12:33 AM 26.6 °F 21.2 °F 17.6 °F 69% 30.25 in 10.0 mi West 4.6 mph - N/A   Clear
12:53 AM 24.8 °F 19.1 °F 17.6 °F 74% 30.24 in 10.0 mi West 4.6 mph - N/A   Clear
1:13 AM 24.8 °F 17.9 °F 17.6 °F 74% 30.23 in 10.0 mi West 5.8 mph - N/A   Clear
1:33 AM 24.8 °F 17.9 °F 17.6 °F 74% 30.20 in 10.0 mi West 5.8 mph - N/A   Clear
1:53 AM 23.0 °F 15.8 °F 17.6 °F 80% - 10.0 mi WSW 5.8 mph - N/A   Clear
2:13 AM 23.0 °F 18.4 °F 17.6 °F 80% - 10.0 mi WSW 3.5 mph - N/A   Clear
2:33 AM 23.0 °F 17.0 °F 17.6 °F 80% - 10.0 mi WSW 4.6 mph - N/A   Clear
2:53 AM 21.2 °F 14.9 °F 15.8 °F 80% - 10.0 mi WSW 4.6 mph - N/A   Clear
3:13 AM 23.0 °F 15.8 °F 17.6 °F 80% - 10.0 mi WSW 5.8 mph - N/A   Clear
3:53 AM 24.8 °F 19.1 °F 17.6 °F 74% - 10.0 mi SW 4.6 mph - N/A   Clear
4:13 AM 24.8 °F 20.5 °F 19.4 °F 80% - 10.0 mi SW 3.5 mph - N/A   Clear
4:33 AM 23.0 °F 17.0 °F 17.6 °F 80% - 10.0 mi WSW 4.6 mph - N/A   Clear
4:52 AM 23.0 °F 15.8 °F 17.6 °F 80% - 10.0 mi WSW 5.8 mph - N/A   Clear
5:13 AM 23.0 °F 17.0 °F 17.6 °F 80% - 10.0 mi WSW 4.6 mph - N/A   Clear
5:33 AM 24.8 °F 19.1 °F 17.6 °F 74% - 10.0 mi SW 4.6 mph - N/A   Clear
5:52 AM 23.0 °F 17.0 °F 17.6 °F 80% - 10.0 mi SSW 4.6 mph - N/A   Clear
6:13 AM 24.8 °F 19.1 °F 17.6 °F 74% - 10.0 mi SSW 4.6 mph - N/A   Clear
6:33 AM 24.8 °F 20.5 °F 17.6 °F 74% - 10.0 mi SW 3.5 mph - N/A   Clear
6:52 AM 24.8 °F 20.5 °F 17.6 °F 74% 30.14 in 10.0 mi SSW 3.5 mph - N/A   Clear
7:13 AM 24.8 °F 20.5 °F 17.6 °F 74% 30.16 in 10.0 mi SSW 3.5 mph - N/A   Clear
7:32 AM 23.0 °F 15.8 °F 17.6 °F 80% 30.16 in 10.0 mi SSW 5.8 mph - N/A   Clear
7:53 AM 24.8 °F 20.5 °F 19.4 °F 80% 30.17 in 10.0 mi SW 3.5 mph - N/A   Clear
8:13 AM 26.6 °F 21.2 °F 19.4 °F 74% 30.15 in 10.0 mi SSW 4.6 mph - N/A   Clear
8:32 AM 28.4 °F 21.2 °F 21.2 °F 74% 30.16 in 10.0 mi SSW 6.9 mph - N/A   Clear
8:53 AM 30.2 °F 21.9 °F 21.2 °F 69% 30.16 in 10.0 mi SSW 9.2 mph - N/A   Clear
9:13 AM 33.8 °F 25.8 °F 23.0 °F 65% 30.16 in 10.0 mi SW 10.4 mph - N/A   Clear
9:32 AM 35.6 °F 28.6 °F 23.0 °F 60% 30.16 in 10.0 mi SW 9.2 mph - N/A   Clear
9:53 AM 39.2 °F 32.5 °F 24.8 °F 56% - 10.0 mi WSW 10.4 mph - N/A   Clear
10:13 AM 42.8 °F 35.8 °F 23.0 °F 46% 30.15 in 10.0 mi SW 13.8 mph 17.3 mph N/A   Clear
10:32 AM 42.8 °F 35.8 °F 21.2 °F 42% 30.14 in 10.0 mi SW 13.8 mph - N/A   Clear
10:53 AM 44.6 °F 38.8 °F 19.4 °F 37% 30.14 in 10.0 mi WSW 11.5 mph 19.6 mph N/A   Clear
11:13 AM 46.4 °F 39.8 °F 17.6 °F 32% 30.13 in 10.0 mi SW 16.1 mph 20.7 mph N/A   Clear
11:32 AM 48.2 °F - 15.8 °F 27% 30.12 in 10.0 mi SW 17.3 mph 23.0 mph N/A   Clear
11:53 AM 50.0 °F - 17.6 °F 28% 30.11 in 10.0 mi SW 18.4 mph 23.0 mph N/A   Clear
12:13 PM 50.0 °F - 17.6 °F 28% 30.10 in 10.0 mi SW 13.8 mph 24.2 mph N/A   Clear
12:33 PM 51.8 °F - 15.8 °F 24% 30.09 in 10.0 mi SW 15.0 mph 25.3 mph N/A   Clear
12:53 PM 51.8 °F - 15.8 °F 24% 30.08 in 10.0 mi WSW 17.3 mph 21.9 mph N/A   Clear
1:33 PM 53.6 °F - 14.0 °F 21% 30.05 in 10.0 mi WSW 12.7 mph 21.9 mph N/A   Clear
1:53 PM 55.4 °F - 14.0 °F 20% 30.04 in 10.0 mi WSW 10.4 mph 23.0 mph N/A   Clear
2:13 PM 53.6 °F - 12.2 °F 19% 30.02 in 10.0 mi WSW 12.7 mph 20.7 mph N/A   Clear
2:33 PM 53.6 °F - 12.2 °F 19% 30.01 in 10.0 mi WSW 19.6 mph 23.0 mph N/A   Clear
2:53 PM 55.4 °F - 12.2 °F 18% 30.00 in 10.0 mi WSW 10.4 mph 20.7 mph N/A   Clear
3:12 PM 55.4 °F - 12.2 °F 18% 29.99 in 10.0 mi WSW 16.1 mph 21.9 mph N/A   Clear
3:33 PM 55.4 °F - 12.2 °F 18% 29.98 in 10.0 mi WSW 10.4 mph 21.9 mph N/A   Clear
3:53 PM 57.2 °F - 12.2 °F 17% 29.98 in 10.0 mi WSW 13.8 mph 24.2 mph N/A   Clear
4:13 PM 57.2 °F - 12.2 °F 17% 29.96 in 10.0 mi WSW 13.8 mph 18.4 mph N/A   Clear
4:33 PM 57.2 °F - 10.4 °F 16% 29.96 in 10.0 mi West 13.8 mph - N/A   Clear
4:53 PM 55.4 °F - 10.4 °F 17% 29.95 in 10.0 mi WSW 15.0 mph - N/A   Clear
5:13 PM 57.2 °F - 10.4 °F 16% 29.95 in 10.0 mi WSW 11.5 mph 17.3 mph N/A   Clear
5:33 PM 55.4 °F - 10.4 °F 17% 29.94 in 10.0 mi WSW 10.4 mph 16.1 mph N/A   Clear
5:52 PM 55.4 °F - 12.2 °F 18% 29.94 in 10.0 mi SW 15.0 mph - N/A   Clear
6:13 PM 55.4 °F - 12.2 °F 18% 29.93 in 10.0 mi SW 12.7 mph - N/A   Clear
6:33 PM 53.6 °F - 12.2 °F 19% 29.93 in 10.0 mi SW 9.2 mph - N/A   Clear
6:52 PM 51.8 °F - 12.2 °F 21% 29.93 in 10.0 mi SW 6.9 mph - N/A   Clear
7:13 PM 50.0 °F - 14.0 °F 24% 29.92 in 10.0 mi SSW 5.8 mph - N/A   Clear
7:33 PM 48.2 °F - 14.0 °F 25% 29.92 in 10.0 mi SSW 6.9 mph - N/A   Clear
7:53 PM 46.4 °F 42.9 °F 14.0 °F 27% 29.92 in 10.0 mi South 6.9 mph - N/A   Clear
8:13 PM 46.4 °F 42.9 °F 15.8 °F 29% 29.92 in 10.0 mi South 6.9 mph - N/A   Clear
8:33 PM 44.6 °F 40.2 °F 15.8 °F 31% 29.91 in 10.0 mi South 8.1 mph - N/A   Clear
8:53 PM 44.6 °F 40.2 °F 15.8 °F 31% 29.91 in 10.0 mi South 8.1 mph - N/A   Clear
9:12 PM 44.6 °F 39.7 °F 15.8 °F 31% 29.91 in 10.0 mi South 9.2 mph - N/A   Clear
9:33 PM 44.6 °F 39.7 °F 15.8 °F 31% 29.91 in 10.0 mi South 9.2 mph - N/A   Clear
9:53 PM 44.6 °F 39.2 °F 15.8 °F 31% 29.90 in 10.0 mi South 10.4 mph - N/A   Scattered Clouds
10:13 PM 42.8 °F 38.0 °F 17.6 °F 36% 29.90 in 10.0 mi South 8.1 mph - N/A   Scattered Clouds
10:33 PM 42.8 °F 37.0 °F 17.6 °F 36% 29.89 in 10.0 mi South 10.4 mph - N/A   Mostly Cloudy
10:53 PM 42.8 °F 37.0 °F 17.6 °F 36% 29.89 in 10.0 mi South 10.4 mph - N/A   Scattered Clouds
11:12 PM 42.8 °F 37.0 °F 17.6 °F 36% 29.88 in 10.0 mi South 10.4 mph - N/A   Clear
11:33 PM 42.8 °F 37.5 °F 19.4 °F 39% 29.87 in 10.0 mi South 9.2 mph - N/A   Clear
11:53 PM 42.8 °F 37.5 °F 19.4 °F 39% 29.86 in 10.0 mi SSW 9.2 mph - N/A   Clear